www.pogodaiklimat.ru

Погода и климат >> Архив погоды >> Хорватия >> Комица


ПОГОДА в Комице

  • Прогноз погоды в Комице
  • Монитор погоды в Комице

АРХИВ ПОГОДЫ в Комице

Время (UTC), дата Ветер
(напр.,м/с)
 
Видим.   Явления Облачность Т
(С)
Тd
(С)
f
(%)
Тe
(С)
Тes
(С)
Комфортность P
(гПа)
Po
(гПа)
Тmin
(С)
Tmax
(С)
R
(мм)
R24
(мм)
S
(см)
13 9.07 Ю 2 20 км 10/1 600 м
[Cu hum As trans]
+29.0 +22.4 68 +38 +44 очень
душно
1010.3 1008.1
18 9.07 С 2 15 км гроза без осадков 10/8 600 м
[Cb cap As op]
+27.4 +21.7 71 +35 +35 очень
душно
1009.4 1007.1 +30.9
19 9.07 СВ 2 15 км слаб. ливневой дождь, в посл. час гроза 10/6 600 м
[Cb cap As op]
+21.1 +18.0 82 +25 +25 комфорт 1009.4 1007.1
20 9.07 ЮЗ 2 20 км слаб. дождь {гроза} 10/5 600 м
[St As op]
+22.0 +19.3 85 +27 +27 душно 1010.8 1008.5
03 10.07 СВ 2 25 км 3/0
[Ac cast]
+21.4 +19.3 88 +26 +26 душно 1008.9 1006.6
04 10.07 СВ 2 25 км 6/1 600 м
[Cu hum Ac cast]
+22.3 +19.6 85 +28 +28 душно 1009.0 1006.7
05 10.07 СВ 2 25 км 3/0
[Ac cast]
+22.9 +19.9 83 +30 +31 очень
душно
1008.5 1006.2
06 10.07 СВ 2 25 км 6/0
[Ac cast]
+24.6 +20.1 76 +30 +33 очень
душно
1007.6 1005.3 +20.1 20
07 10.07 СВ 4 25 км 9/6 1500 м
[Sc Ac As]
+24.6 +20.2 77 +30 +31 очень
душно
1007.2 1004.9
08 10.07 СВ 4 25 км 8/4 1500 м
[Sc Ac cast]
+26.2 +19.9 68 +32 +35 очень
душно
1007.7 1005.4
09 10.07 СВ 4 25 км 9/3 1500 м
[Sc Ac cast]
+26.1 +18.4 63 +31 +34 очень
душно
1008.1 1005.8
10 10.07 СВ 2 25 км 10/8 600 м
[Sc As op]
+25.2 +18.8 68 +30 +31 душно 1008.7 1006.4
11 10.07 СВ 2 30 км в посл. час дождь 10/8 1500 м
[Sc As op]
+23.8 +18.9 74 +29 +29 душно 1008.2 1005.9
12 10.07 СВ 2 10 км слаб. дождь 10/3 600 м
[St As op]
+22.5 +17.9 75 +28 +30 душно 1006.9 1004.6 1
13 10.07 СВ 2 30 км в посл. час дождь 10/3 1500 м
[Sc As trans]
+24.1 +17.4 66 +28 +32 душно 1007.1 1004.8
18 10.07 С 1 40 км 3/0
[Ci fib]
+24.0 +14.7 56 +27 +27 жарко 1008.2 1005.9 +26.9 2
19 10.07 С 1 40 км ясно +21.9 +12.7 56 +24 +24 комфорт 1009.0 1006.7
20 10.07 С 2 40 км ясно +21.0 +12.2 57 +24 +24 комфорт 1009.9 1007.6
03 11.07 СВ 2 40 км ясно +20.0 +8.4 47 +22 +22 комфорт 1011.3 1009.0
04 11.07 СВ 4 40 км ясно +20.6 +7.9 44 +22 +22 комфорт 1011.2 1008.9
05 11.07 СВ 4 40 км ясно +20.6 +8.3 45 +22 +23 комфорт 1011.7 1009.4
06 11.07 СВ 2 50 км ясно +22.0 +8.9 43 +23 +28 комфорт 1012.3 1010.0 +20.0
07 11.07 СВ 2 50 км 3/0
[Ci fib]
+22.8 +9.3 42 +24 +32 комфорт 1012.4 1010.1
08 11.07 СВ 2 50 км ясно +24.4 +9.1 38 +25 +37 комфорт 1012.5 1010.2
09 11.07 СВ 2 50 км ясно +24.5 +8.0 35 +25 +41 комфорт 1012.6 1010.3
10 11.07 С 2 50 км ясно +25.6 +8.2 33 +26 +44 жарко 1012.6 1010.3
11 11.07 С 2 50 км 3/0
[Ci fib]
+25.6 +8.5 34 +26 +44 жарко 1012.4 1010.1
12 11.07 С 4 50 км 5/0
[Ci fib]
+25.2 +10.0 38 +26 +37 жарко 1012.2 1009.9
13 11.07 С 2 50 км 4/0
[Ci fib]
+25.4 +9.4 36 +26 +40 жарко 1012.1 1009.8
18 11.07 СЗ 2 50 км 9/0
[Cc]
+23.5 +12.4 50 +25 +26 комфорт 1011.6 1009.3 +26.0
19 11.07 С 2 50 км 8/0
[Ac trans]
+22.8 +14.0 58 +26 +26 жарко 1011.6 1009.3
20 11.07 С 2 50 км 5/0
[Ci fib]
+23.0 +14.6 59 +27 +27 душно 1011.9 1009.6
03 12.07 С 1 30 км 9/0
[Ac As]
+21.0 +15.5 71 +25 +25 комфорт 1011.1 1008.8
04 12.07 С 1 30 км 9/3 1500 м
[Sc Ac As]
+21.0 +15.3 70 +25 +25 комфорт 1011.6 1009.3
05 12.07 С 2 30 км 8/0
[Ac cast]
+22.0 +14.9 64 +25 +26 комфорт 1011.6 1009.3
06 12.07 С 2 40 км 8/0
[Ac cast]
+23.6 +13.8 54 +26 +28 жарко 1011.6 1009.3 +19.6
07 12.07 С 2 50 км 8/0
[Ac cast]
+23.8 +14.1 55 +26 +30 жарко 1011.7 1009.4
08 12.07 С 2 50 км 9/0
[Ac cast]
+25.0 +13.3 48 +27 +32 жарко 1011.8 1009.5
09 12.07 С 2 50 км 8/0
[Ac cast]
+26.5 +15.3 50 +29 +36 жарко 1011.9 1009.6
10 12.07 СЗ 2 50 км 8/0
[Ac cast]
+27.0 +11.2 37 +28 +36 жарко 1011.7 1009.4
11 12.07 СЗ 2 50 км 9/1 600 м
[Cu hum Ac cast]
+27.5 +11.7 37 +28 +35 жарко 1011.6 1009.3
12 12.07 СЗ 2 50 км 9/0
[Ac cast Ci fib]
+28.1 +10.6 34 +29 +36 жарко 1011.5 1009.2
13 12.07 СЗ 2 50 км 8/0
[Ac cast]
+27.5 +14.1 44 +30 +37 жарко 1011.2 1008.9
18 12.07 СЗ 2 50 км ясно +23.3 +16.5 66 +28 +28 душно 1010.7 1008.4 +28.5
19 12.07 С 1 50 км ясно +21.2 +16.2 73 +25 +25 комфорт 1011.0 1008.7
20 12.07 С 1 50 км ясно +20.5 +16.3 77 +25 +25 комфорт 1011.4 1009.1
03 13.07 С 1 25 км 8/0
[Ac und]
+20.2 +13.1 64 +23 +23 комфорт 1009.8 1007.5
04 13.07 С 1 25 км 3/0
[Cc]
+19.8 +14.3 71 +23 +23 комфорт 1009.4 1007.1
05 13.07 С 1 25 км ясно +20.7 +17.0 79 +25 +27 комфорт 1009.1 1006.8
06 13.07 В 2 30 км 1/1 600 м
[Cu hum]
+24.1 +16.6 63 +28 +32 душно 1009.2 1006.9 +19.4
07 13.07 В 2 30 км 6/3 600 м
[Cu med, cong Cc]
+25.2 +16.6 59 +29 +34 душно 1009.2 1006.9
08 13.07 ЮВ 4 30 км 9/3 600 м
[Cu med, cong Ac cast Cs]
+24.3 +18.3 69 +29 +32 душно 1009.1 1006.8
09 13.07 СВ 1 30 км 9/1 600 м
[Cu hum As op]
+24.0 +17.1 65 +28 +33 душно 1009.3 1007.0
10 13.07 СВ 2 15 км слаб. дождь 10/8 600 м
[St As op]
+22.6 +19.3 82 +29 +29 очень
душно
1009.1 1006.8
11 13.07 СВ 2 10 км слаб. дождь 10/4 600 м
[St As op]
+22.9 +19.5 81 +29 +32 очень
душно
1010.2 1007.9
12 13.07 СВ 2 20 км слаб. дождь 9/4 600 м
[Sc Ac cast]
+23.2 1008.1 1005.8 2
13 13.07 СВ 2 20 км в посл. час дождь 9/3 1500 м
[Sc Ac cast]
+24.5 +18.5 69 +29 +33 душно 1007.7 1005.4
18 13.07 СЗ 2 25 км ясно +23.2 +16.1 64 +28 +28 душно 1008.3 1006.0 +26.9 2
19 13.07 С 1 25 км ясно +22.5 +17.8 75 +28 +28 душно 1008.6 1006.3
20 13.07 С 1 25 км ясно +22.1 +17.5 75 +27 +27 душно 1008.7 1006.4
03 14.07 С 4 40 км ясно +21.2 +12.1 56 +23 +23 комфорт 1009.1 1006.8
04 14.07 С 2 40 км ясно +20.6 +12.1 58 +23 +24 комфорт 1009.2 1006.9
05 14.07 С 2 40 км ясно +20.6 +12.7 61 +24 +25 комфорт 1009.2 1006.9
06 14.07 С 2 40 км ясно +22.5 +13.4 56 +25 +30 комфорт 1009.4 1007.1 +19.7
07 14.07 С 4 50 км ясно +23.7 +12.6 50 +26 +31 жарко 1009.8 1007.5
08 14.07 С 2 50 км ясно +24.8 +13.0 48 +27 +39 жарко 1010.1 1007.8
09 14.07 С 2 50 км ясно +25.3 +15.3 54 +28 +44 жарко 1010.4 1008.1
10 14.07 С 2 50 км ясно +26.3 +14.9 49 +29 +47 жарко 1010.5 1008.2
11 14.07 СЗ 4 50 км ясно +26.2 +12.8 43 +28 +41 жарко 1010.5 1008.2
12 14.07 СЗ 6 50 км ясно +25.7 +14.2 49 +28 +35 жарко 1010.2 1007.9
13 14.07 СЗ 4 50 км ясно +26.1 +14.5 49 +29 +39 жарко 1010.2 1007.9
18 14.07 СЗ 2 50 км ясно +23.9 +15.5 59 +27 +27 жарко 1009.3 1007.0 +26.7
19 14.07 С 1 50 км ясно +21.8 +15.5 67 +25 +25 комфорт 1009.7 1007.4
20 14.07 С 2 50 км ясно +21.2 +15.2 69 +24 +24 комфорт 1009.7 1007.4
03 15.07 С 2 40 км 3/0
[Ac trans Ci sp]
+21.8 +13.5 59 +25 +25 комфорт 1007.4 1005.1
04 15.07 С 2 40 км 5/0
[Ac trans Ci]
+21.9 +12.5 55 +24 +24 комфорт 1007.5 1005.2
05 15.07 СВ 2 40 км 5/0
[Ac trans Ci sp]
+21.2 +11.7 55 +23 +24 комфорт 1007.5 1005.2
06 15.07 Ю 1 40 км 8/0
[Cs]
+23.5 +13.3 53 +26 +30 жарко 1007.7 1005.4 +20.7
07 15.07 Ю 2 40 км 8/0
[Cs]
+24.3 +13.9 52 +27 +33 жарко 1008.1 1005.8
08 15.07 Ю 2 40 км 3/0
[Ac trans Ci sp]
+26.2 +13.1 44 +28 +38 жарко 1008.1 1005.8
09 15.07 Ю 2 40 км 4/1 600 м
[Cu hum Ac trans Ci sp]
+27.0 +12.3 40 +28 +40 жарко 1008.2 1005.9
10 15.07 ЮВ 4 40 км 8/0
[Ac trans Cc]
+27.8 +11.7 37 +29 +38 жарко 1008.1 1005.8
11 15.07 Ю 2 40 км 8/0
[Ac trans Cs]
+26.8 +12.0 40 +28 +42 жарко 1008.2 1005.9
12 15.07 Ю 2 40 км 8/0
[Ac trans Cs]
+27.0 +13.5 43 +29 +41 жарко 1008.1 1005.8
13 15.07 Ю 2 40 км 8/0
[Ac trans Cs]
+26.7 +14.5 47 +29 +39 жарко 1008.0 1005.7
18 15.07 В 1 30 км 10/4 600 м
[Cu med, cong As op]
+24.0 +14.5 55 +27 +27 жарко 1008.3 1006.0 +27.8
19 15.07 С 2 30 км 10/4 600 м
[Cu med, cong As op]
+22.1 +15.2 65 +26 +26 душно 1008.8 1006.5
20 15.07 С 1 30 км слаб. дождь 10/0
[As op]
+22.2 +17.1 73 +27 +27 душно 1009.2 1006.9
03 16.07 СВ 4 30 км 10/3 600 м
[Cu hum As op]
+22.9 +14.1 58 +26 +26 жарко 1007.6 1005.3
04 16.07 СВ 4 30 км 8/1 600 м
[Cu hum Ac und]
+22.8 +14.4 59 +26 +26 жарко 1007.3 1005.0
05 16.07 СВ 2 40 км 8/3 1000 м
[Cu hum Ac trans Cs]
+22.7 +14.1 58 +26 +27 жарко 1007.5 1005.2
06 16.07 СВ 4 40 км 8/0
[Ac trans Cs]
+23.7 +13.8 54 +26 +28 жарко 1007.6 1005.3 +21.4 0.0
07 16.07 В 2 40 км 6/0
[Cs]
+24.7 +13.3 49 +27 +34 жарко 1008.4 1006.1
08 16.07 С 4 40 км 6/0
[Ac trans Cs]
+26.4 +13.1 44 +28 +35 жарко 1008.6 1006.3
09 16.07 СВ 4 40 км 8/0
[Cs]
+26.4 +13.1 44 +28 +37 жарко 1008.5 1006.2
10 16.07 СВ 4 40 км 4/0
[Cs]
+26.6 +12.0 40 +28 +39 жарко 1008.7 1006.4
11 16.07 С 4 40 км 3/0
[Ci sp]
+28.2 +12.1 37 +29 +41 жарко 1008.7 1006.4

 

Местоположение метеостанции Комица (Хорватия): широта 43.05 долгота 16.10 высота над уровнем моря 20 м.

В архиве по умолчанию представлена погода в Комице за последнюю неделю. Архивные данные за месяц целиком и за предыдущие месяцы, начиная с января 2011 года, Вы можете получить, выбрав интересующий диапазон дат из раскрывающегося списка и нажав кнопку "Ввод!".


*Определитесь, кто Вы:
робот инопланетянин человек

Внимание! Время в таблицах - всемирное. Для получения местного времени необходимо прибавить поправку, которая равна 1 ч.

Смотрите также архив погоды в соседних городах и на ближайших метеорологических станциях:

Погода в Хваре (Хорватия) (31 км)
Погода в Сплит аэропорту (Хорватия) (56 км)
Погода в Сплите (Хорватия) (59 км)
Погода в Ластово (Хорватия) (72 км)
Погода на Палагруже (Хорватия) (74 км)
Погода в Шибенике (Хорватия) (77 км)
Погода в Макарска (Хорватия) (79 км)
Погода в Плоче (Хорватия) (108 км)
Погода в Ливно (Босния и Герцеговина) (114 км)
Погода в Неуме (Босния и Герцеговина) (123 км)

Пояснения к столбцам:

Ветер - указаны скорость ветра в м/с - средняя за 10 мин, порывы в срок и между сроками (в фигурных скобках) и направление, откуда дует ветер: С - северный, СВ - северо-восточный, В - восточный, ЮВ - юго-восточный, Ю - южный, ЮЗ - юго-западный, З - западный, СЗ - северо-западный.
Видимость - горизонтальная дальность видимости в метрах или километрах. При видимости от 1 до 10 км при отсутствии осадков обычно наблюдается дымка, при ухудшении видимости до 1 км и менее - туман. В сухую погоду видимость может ухудшаться дымом, пылью или мглою.
Явления - указаны атмосферные явления, наблюдавшиеся в срок или в последний час перед сроком; фигурными скобками обозначены явления, наблюдавшиеся между сроками (за 1-3 часа до срока); квадратными скобками обозначены град или гололедные отложения с указанием их диаметра в мм.
Облачность - указаны через наклонную черту общая и нижняя облачность в баллах и высота нижней границы облаков в метрах; квадратными скобками обозначены формы облаков: Ci - перистые, Cs - перисто-слоистые, Cc - перисто-кучевые, Ac - высококучевые, As - высокослоистые, Sc - слоисто-кучевые, Ns - слоисто-дождевые, Cu - кучевые, Cb - кучево-дождевые. Подробнее классификацию облаков см. в Атласе облаков (PDF).
T - Температура воздуха - температура, измеренная на высоте 2 м над землей.
Td - Температура точки росы - температура, при понижении до которой содержащийся в воздухе водяной пар достигнет насыщения.
f - Относительная влажность воздуха - влажноcть воздуха, измеренная на высоте 2 м над землей.
Te - Эффективная температура - температура, которую ощущает одетый по сезону человек в тени. Характеристика душности погоды. При расчете учитывается влияние влажности воздуха и скорости ветра на теплоощущения человека.
Tes - Эффективная температура на солнце - температура, которую ощущает человек, с поправкой на солнечный нагрев. Характеристика знойности погоды. Зависит от высоты солнца над горизонтом, облачности и скорости ветра. Ночью, в пасмурную погоду, а также при ветре 12 м/с и более поправка равна нулю.
P - Атмосферное давление - приведенное к уровню моря атмосферное давление.
Po - Атмосферное давление - измеренное на уровне метеостанции атмосферное давление.
Tmin - Минимальная температура - минимум температуры воздуха на высоте 2 м над землей.
Tmax - Максимальная температура - максимум температуры воздуха на высоте 2 м над землей.
R - Количество осадков - Количество выпавших осадков за период времени, мм. При наведении курсора мыши на число - период времени, за который выпало указанное количество осадков.
R24 - Количество осадков - Количество выпавших осадков за 24 часа, мм.
S - Снежный покров - Высота снежного покрова, см. При наведении курсора мыши на число - состояние снежного покрова и степень покрытия местности в баллах.